Flag for US Virgin Islands Weather past 2 weeks in Charlotte Amalie, US Virgin Islands

Now
84 °F

Cloudy.


Feels Like: 90 °F
Forecast: 78 / 85 °F
Wind: 16 mph from Southeast

Location: Cyril E. King International Airport

Current Time: May 25, 2015 at 11:58:06 AM

Latest Report: May 25, 2015 at 10:53 AM


Visibility: 10 mi

Pressure: 30.06 "Hg

Humidity: 70%

Dew point: 73 °F

Location of Charlotte AmalieLocation

Historic Weather in Charlotte Amalie — Graph

°F

Charlotte Amalie temperature yesterday

Maximum temperature yesterday: 87 °F (at 10:37 AM)
Minimum temperature yesterday: 78 °F (at 3:29 AM)
Average temperature yesterday: 83 °F

Past Weeks' High & Low Weather Summary

 TemperatureHumidityPressure
High90 °F (May 12, 1:53 PM)100% (May 16, 1:21 PM)30.14 "Hg (May 16, 1:21 PM)
Low73 °F (May 17, 3:53 AM)50% (May 13, 1:53 PM)29.95 "Hg (May 20, 4:53 PM)
Average81 °F75%30.05 "Hg
* Reported May 10 10:53 AM — May 25 10:53 AM, Charlotte Amalie, Weather by CustomWeather, © 2015

Note: Actual official high and low records may vary slightly from our data, if they occured in-between our weather recording intervals... More about our weather records

Advertising

Charlotte Amalie weather history for previous 24 hours

 ConditionsComfort  
Time TempWeatherWind HumidityBarometerVisibility
10:53 AM
Mon, May 25
84 °FCloudy.16 mph70%30.06 "Hg10 mi
9:53 AM84 °FPartly sunny.12 mph67%30.07 "Hg10 mi
9:38 AM84 °FMore clouds than sun.12 mph65%30.07 "Hg10 mi
8:53 AM86 °FMostly cloudy.14 mph61%30.07 "Hg10 mi
7:53 AM84 °FMostly cloudy.13 mph65%30.06 "Hg10 mi
6:53 AM80 °FOvercast.6 mph74%30.05 "Hg10 mi
5:53 AM78 °FOvercast.9 mph79%30.04 "Hg10 mi
4:53 AM78 °FOvercast.8 mph76%30.03 "Hg10 mi
3:53 AM79 °FOvercast.8 mph74%30.03 "Hg10 mi
3:08 AM79 °FOvercast.7 mph74%30.02 "Hg10 mi
2:53 AM79 °FOvercast.8 mph74%30.02 "Hg10 mi
2:43 AM79 °FOvercast.9 mph74%30.03 "Hg10 mi
1:53 AM79 °FOvercast.8 mph74%30.03 "Hg10 mi
12:53 AM79 °FOvercast.6 mph74%30.04 "Hg10 mi
11:53 PM
Sun, May 24
80 °FOvercast.9 mph71%30.07 "Hg10 mi
10:53 PM80 °FOvercast.10 mph74%30.09 "Hg10 mi
9:53 PM81 °FMostly cloudy.9 mph74%30.08 "Hg10 mi
8:53 PM80 °FOvercast.7 mph71%30.07 "Hg10 mi
8:40 PM81 °FOvercast.7 mph69%30.07 "Hg10 mi
8:20 PM81 °FOvercast.8 mph72%30.07 "Hg10 mi
7:53 PM81 °FOvercast.10 mph69%30.06 "Hg10 mi
6:53 PM82 °FOvercast.12 mph67%30.04 "Hg10 mi
5:53 PM84 °FOvercast.10 mph65%30.03 "Hg10 mi
4:53 PM87 °FMostly cloudy.13 mph51%30.02 "Hg10 mi
4:21 PM87 °FMostly cloudy.16 mph53%30.01 "Hg10 mi
3:53 PM86 °FMore clouds than sun.9 mph57%30.02 "Hg10 mi
3:04 PM86 °FMore clouds than sun.13 mph61%30.03 "Hg10 mi
2:32 PM86 °FMostly cloudy.15 mph63%30.04 "Hg10 mi
1:53 PM86 °FMostly cloudy.16 mph63%30.04 "Hg10 mi
1:04 PM86 °FMostly cloudy.16 mph63%30.06 "Hg10 mi
12:53 PM85 °FMore clouds than sun.15 mph65%30.06 "Hg10 mi
12:21 PM85 °FBroken clouds.14 mph68%30.07 "Hg10 mi
11:53 AM86 °FMostly cloudy.15 mph65%30.08 "Hg10 mi
11:41 AM85 °FMostly cloudy.13 mph68%30.08 "Hg10 mi
11:00 AM87 °FCloudy.14 mph55%30.09 "Hg10 mi
Weather by CustomWeather, © 2015

See weather overviewHow to use our weather pages